User: anonymous
Location: Unspecified
(0.0000°N, 0.0000°E)
Time: 20:58:23
(UTC+00:00)
Language:

USA 200 - Orbit

View from above orbital plane
View from above orbital plane
View from above satellite
View from above satellite

Ground track
Ground track

The orbit data is extracted from the following two-line orbital elements,

1 32706U 08010A   14235.49232923 -.00000272  00000-0  00000-0 0    01
2 32706  63.1300 119.3112 6910318 267.9736  18.3453  2.00615028    07
Epoch (UTC): 23 August 2014 11:48:57
Eccentricity: 0.6910318
inclination: 63.1300°
perigee height: 1827 km
apogee height: 38528 km
right ascension of ascending node: 119.3112°
argument of perigee: 267.9736°
revolutions per day: 2.00615028
mean anomaly at epoch: 18.3453°
orbit number at epoch: 0

The dashed part of the orbit path shows where the satellite is in the earth's shadow,  

DLR